Tracking 18852 objects as of 23-Nov-2017
HD Live streaming from Space Station
objects crossing your sky now

SPACENET 4 (ASC 2)

Track SPACENET 4 (ASC 2) now!
SPACENET 4 (ASC 2) is classified as:


NORAD ID: 21227
Int'l Code: 1991-028A
Perigee: 35,952.7 km
Apogee: 36,032.2 km
Inclination: 11.0 °
Period: 1,446.3 minutes
Semi major axis: 42363 km
RCS: 6.3095 m2 (large)
Launch date: April 13, 1991
Source: United States (US)
Launch site: AIR FORCE EASTERN TEST RANGE (AFETR)

Communications in Pacific region.
aabbcc
Your satellite tracking list
Your tracking list is empty




NASA's NSSDC Master Catalog

Two Line Element Set (TLE):
1 21227U 91028A   17326.44856095 +.00000096 +00000-0 +00000-0 0  9999
2 21227 010.9728 036.5549 0009378 249.8951 156.8011 00.99567131095221
Source of the keplerian elements: AFSPC